Track STARLINK-2188 now! 10-day predictions STARLINK-2188 is classified as:
1 48563U 21041L 22180.40375910 -.00001263 00000-0 -65947-4 0 9995 2 48563 53.0544 68.8008 0001533 70.4257 289.6897 15.06386242 61830